QPF
0.00 0.00 0.00 0.00 0.00 0.00 0.00 0.00 0.00 0.00 0.00 0.00 0.00 0.01 0.01 0.01 0.01 0.02 0.02 0.01 0.01 0.02 0.02 0.01 0.01 0.01 0.02 0.03 0.01 0.02 0.02 0.03 0.04 0.07 0.09 0.09 0.12 0.14 0.17 0.15 0.10 0.09 0.09 0.10
0.01 0.00 0.00 0.00 0.00 0.00 0.00 0.00 0.00 0.00 0.00 0.00 0.00 0.00 0.01 0.01 0.01 0.01 0.01 0.01 0.01 0.02 0.01 0.01 0.02 0.02 0.02 0.02 0.01 0.02 0.02 0.01 0.02 0.04 0.06 0.07 0.08 0.12 0.14 0.13 0.11 0.10 0.09 0.09
0.00 0.00 0.00 0.00 0.00 0.00 0.00 0.00 0.01 0.00 0.00 0.00 0.00 0.01 0.01 0.01 0.01 0.01 0.01 0.01 0.01 0.01 0.02 0.02 0.02 0.04 0.03 0.02 0.03 0.02 0.02 0.02 0.02 0.02 0.04 0.06 0.07 0.07 0.08 0.08 0.06 0.06 0.06 0.07
0.00 0.00 0.00 0.00 0.00 0.00 0.00 0.00 0.00 0.00 0.00 0.01 0.02 0.01 0.02 0.02 0.01 0.01 0.02 0.02 0.01 0.01 0.02 0.02 0.02 0.03 0.03 0.03 0.03 0.02 0.02 0.03 0.02 0.03 0.04 0.05 0.06 0.06 0.05 0.05 0.05 0.04 0.05 0.06
0.00 0.00 0.00 0.00 0.00 0.00 0.00 0.00 0.00 0.00 0.01 0.02 0.02 0.03 0.03 0.04 0.05 0.03 0.02 0.02 0.01 0.01 0.01 0.01 0.02 0.04 0.04 0.04 0.04 0.04 0.05 0.06 0.05 0.05 0.06 0.07 0.07 0.06 0.05 0.04 0.04 0.04 0.04 0.04
0.00 0.00 0.00 0.00 0.00 0.00 0.00 0.00 0.01 0.02 0.03 0.03 0.02 0.03 0.05 0.05 0.05 0.04 0.03 0.03 0.02 0.01 0.01 0.01 0.02 0.03 0.03 0.04 0.05 0.06 0.07 0.07 0.08 0.07 0.08 0.09 0.08 0.07 0.06 0.04 0.04 0.04 0.04 0.04
0.01 0.00 0.00 0.00 0.00 0.00 0.00 0.01 0.03 0.05 0.05 0.04 0.02 0.02 0.03 0.02 0.03 0.04 0.03 0.02 0.01 0.01 0.02 0.04 0.04 0.03 0.03 0.03 0.04 0.04 0.06 0.07 0.08 0.10 0.11 0.09 0.07 0.06 0.05 0.05 0.04 0.04 0.03 0.04
0.02 0.01 0.00 0.00 0.00 0.00 0.00 0.02 0.03 0.04 0.04 0.04 0.03 0.03 0.02 0.02 0.01 0.01 0.02 0.01 0.01 0.02 0.05 0.07 0.06 0.04 0.02 0.02 0.02 0.03 0.05 0.06 0.07 0.08 0.10 0.09 0.08 0.06 0.04 0.05 0.05 0.04 0.04 0.04
0.00 0.00 0.00 0.00 0.00 0.00 0.00 0.01 0.01 0.01 0.01 0.03 0.03 0.03 0.03 0.02 0.01 0.01 0.01 0.01 0.01 0.01 0.02 0.04 0.06 0.04 0.02 0.02 0.03 0.02 0.03 0.04 0.05 0.07 0.09 0.07 0.07 0.08 0.06 0.05 0.05 0.04 0.04 0.03
0.00 0.00 0.00 0.00 0.00 0.00 0.00 0.00 0.00 0.01 0.02 0.04 0.03 0.04 0.05 0.03 0.03 0.02 0.03 0.02 0.01 0.01 0.01 0.01 0.01 0.02 0.02 0.03 0.03 0.02 0.03 0.03 0.05 0.07 0.07 0.05 0.06 0.07 0.07 0.06 0.04 0.04 0.04 0.03
0.00 0.00 0.00 0.00 0.00 0.00 0.00 0.00 0.00 0.01 0.01 0.04 0.04 0.04 0.03 0.03 0.03 0.05 0.03 0.02 0.02 0.01 0.01 0.01 0.01 0.01 0.02 0.03 0.03 0.03 0.03 0.04 0.03 0.05 0.06 0.06 0.08 0.08 0.07 0.06 0.04 0.04 0.05 0.05
0.00 0.00 0.00 0.00 0.00 0.00 0.00 0.00 0.01 0.02 0.03 0.03 0.04 0.03 0.02 0.02 0.02 0.03 0.02 0.01 0.01 0.02 0.01 0.01 0.01 0.01 0.02 0.02 0.03 0.03 0.03 0.03 0.02 0.04 0.06 0.07 0.08 0.07 0.06 0.04 0.04 0.04 0.05 0.06
0.00 0.01 0.01 0.01 0.00 0.00 0.00 0.00 0.00 0.02 0.03 0.03 0.04 0.03 0.02 0.01 0.02 0.01 0.01 0.01 0.01 0.01 0.01 0.01 0.01 0.01 0.01 0.01 0.03 0.03 0.03 0.03 0.03 0.03 0.05 0.07 0.07 0.08 0.08 0.06 0.06 0.07 0.07 0.06
0.00 0.00 0.01 0.01 0.01 0.00 0.00 0.00 0.00 0.01 0.03 0.03 0.02 0.02 0.02 0.01 0.01 0.01 0.01 0.01 0.01 0.02 0.02 0.02 0.02 0.01 0.01 0.01 0.02 0.02 0.03 0.04 0.04 0.04 0.04 0.06 0.07 0.10 0.13 0.10 0.08 0.08 0.08 0.07
0.00 0.01 0.01 0.00 0.00 0.00 0.00 0.00 0.00 0.00 0.01 0.01 0.01 0.01 0.02 0.02 0.02 0.01 0.01 0.01 0.01 0.02 0.02 0.01 0.01 0.01 0.01 0.01 0.01 0.02 0.03 0.04 0.05 0.06 0.07 0.09 0.09 0.11 0.14 0.14 0.12 0.10 0.08 0.06
0.00 0.01 0.01 0.00 0.00 0.00 0.00 0.01 0.01 0.01 0.01 0.01 0.01 0.01 0.02 0.02 0.02 0.01 0.01 0.01 0.01 0.01 0.01 0.01 0.01 0.01 0.01 0.01 0.01 0.02 0.03 0.05 0.05 0.06 0.09 0.10 0.10 0.11 0.12 0.12 0.10 0.09 0.08 0.07
0.00 0.00 0.01 0.01 0.00 0.01 0.01 0.01 0.01 0.01 0.01 0.01 0.01 0.02 0.02 0.02 0.02 0.02 0.02 0.02 0.02 0.01 0.01 0.01 0.01 0.02 0.02 0.02 0.02 0.03 0.05 0.06 0.05 0.05 0.04 0.04 0.06 0.07 0.08 0.07 0.07 0.08 0.09 0.09
0.00 0.00 0.00 0.01 0.02 0.03 0.02 0.01 0.01 0.01 0.01 0.01 0.01 0.01 0.02 0.02 0.02 0.02 0.02 0.02 0.03 0.02 0.01 0.01 0.01 0.02 0.02 0.02 0.02 0.04 0.05 0.06 0.06 0.05 0.05 0.05 0.06 0.06 0.06 0.06 0.07 0.08 0.09 0.08
0.01 0.01 0.01 0.01 0.02 0.03 0.01 0.00 0.01 0.01 0.01 0.01 0.01 0.01 0.02 0.02 0.03 0.02 0.01 0.02 0.02 0.01 0.01 0.01 0.02 0.03 0.02 0.02 0.03 0.04 0.05 0.05 0.05 0.04 0.04 0.04 0.04 0.04 0.06 0.07 0.08 0.08 0.07 0.06
0.01 0.01 0.01 0.01 0.01 0.02 0.01 0.00 0.00 0.01 0.02 0.01 0.01 0.02 0.03 0.03 0.03 0.04 0.02 0.01 0.01 0.01 0.01 0.02 0.03 0.04 0.02 0.02 0.03 0.05 0.06 0.05 0.04 0.03 0.03 0.03 0.04 0.04 0.05 0.08 0.10 0.09 0.07 0.05
0.00 0.01 0.01 0.02 0.03 0.04 0.02 0.00 0.01 0.02 0.03 0.02 0.02 0.03 0.03 0.03 0.03 0.03 0.02 0.02 0.01 0.01 0.01 0.02 0.04 0.05 0.02 0.02 0.03 0.05 0.06 0.05 0.04 0.03 0.03 0.04 0.05 0.06 0.06 0.07 0.08 0.08 0.07 0.05
0.00 0.01 0.01 0.03 0.05 0.07 0.05 0.02 0.03 0.03 0.03 0.02 0.02 0.02 0.03 0.03 0.02 0.02 0.01 0.01 0.01 0.01 0.02 0.03 0.06 0.06 0.03 0.02 0.03 0.04 0.05 0.05 0.04 0.04 0.04 0.05 0.05 0.04 0.06 0.07 0.07 0.05 0.05 0.05
0.01 0.01 0.02 0.03 0.04 0.04 0.02 0.02 0.02 0.01 0.01 0.01 0.01 0.01 0.01 0.03 0.03 0.02 0.01 0.01 0.01 0.02 0.03 0.04 0.07 0.07 0.04 0.03 0.03 0.04 0.05 0.04 0.04 0.06 0.05 0.05 0.05 0.05 0.06 0.06 0.05 0.03 0.04 0.04
0.00 0.00 0.01 0.01 0.01 0.01 0.01 0.01 0.01 0.00 0.00 0.00 0.01 0.00 0.01 0.02 0.03 0.03 0.02 0.02 0.02 0.02 0.03 0.04 0.07 0.09 0.06 0.04 0.03 0.04 0.04 0.03 0.03 0.04 0.04 0.04 0.05 0.05 0.05 0.05 0.04 0.04 0.03 0.05
0.00 0.00 0.01 0.01 0.01 0.01 0.00 0.01 0.01 0.01 0.00 0.00 0.00 0.00 0.01 0.01 0.01 0.03 0.03 0.02 0.02 0.02 0.02 0.04 0.07 0.10 0.07 0.04 0.04 0.03 0.03 0.03 0.04 0.05 0.04 0.03 0.03 0.04 0.04 0.04 0.04 0.03 0.03 0.04
0.00 0.00 0.01 0.01 0.01 0.01 0.01 0.00 0.00 0.01 0.01 0.01 0.01 0.01 0.01 0.01 0.01 0.03 0.03 0.03 0.02 0.02 0.02 0.04 0.06 0.09 0.07 0.05 0.04 0.03 0.03 0.03 0.04 0.04 0.04 0.03 0.03 0.04 0.04 0.04 0.03 0.02 0.02 0.02
MSLP
1005.83 1006.60 1007.24 1007.68 1007.91 1007.92 1007.76 1007.48 1007.15 1006.85 1006.63 1006.53 1006.57 1006.73 1007.00 1007.32 1007.66 1007.98 1008.23 1008.39 1008.46 1008.43 1008.32 1008.15 1007.96 1007.78 1007.62 1007.48 1007.38 1007.30 1007.21 1007.12 1006.99 1006.83 1006.62 1006.40 1006.16 1005.93 1005.72 1005.55 1005.42 1005.32 1005.27 1005.26
1006.70 1007.40 1007.96 1008.33 1008.48 1008.41 1008.16 1007.78 1007.36 1006.94 1006.62 1006.42 1006.38 1006.49 1006.74 1007.10 1007.50 1007.90 1008.24 1008.48 1008.60 1008.59 1008.46 1008.23 1007.95 1007.66 1007.39 1007.16 1007.00 1006.89 1006.81 1006.74 1006.66 1006.52 1006.35 1006.12 1005.87 1005.60 1005.35 1005.15 1005.00 1004.91 1004.89 1004.92
1007.54 1008.13 1008.58 1008.86 1008.92 1008.79 1008.48 1008.05 1007.56 1007.10 1006.70 1006.44 1006.34 1006.42 1006.65 1007.02 1007.45 1007.90 1008.30 1008.60 1008.75 1008.75 1008.59 1008.30 1007.93 1007.54 1007.17 1006.85 1006.62 1006.47 1006.38 1006.32 1006.25 1006.15 1005.98 1005.76 1005.50 1005.20 1004.93 1004.70 1004.54 1004.46 1004.46 1004.53
1008.28 1008.72 1009.05 1009.22 1009.22 1009.05 1008.74 1008.31 1007.84 1007.38 1006.98 1006.70 1006.58 1006.62 1006.82 1007.15 1007.57 1008.02 1008.42 1008.72 1008.88 1008.86 1008.68 1008.34 1007.90 1007.42 1006.95 1006.56 1006.25 1006.04 1005.92 1005.86 1005.80 1005.71 1005.56 1005.35 1005.08 1004.78 1004.49 1004.24 1004.07 1003.99 1004.00 1004.09
1008.86 1009.16 1009.37 1009.46 1009.42 1009.25 1008.98 1008.63 1008.24 1007.85 1007.51 1007.26 1007.12 1007.12 1007.26 1007.52 1007.86 1008.24 1008.58 1008.84 1008.96 1008.91 1008.69 1008.30 1007.82 1007.28 1006.75 1006.28 1005.90 1005.64 1005.48 1005.39 1005.32 1005.24 1005.11 1004.92 1004.66 1004.36 1004.07 1003.81 1003.62 1003.53 1003.53 1003.62
1009.33 1009.50 1009.59 1009.62 1009.57 1009.45 1009.28 1009.05 1008.80 1008.54 1008.30 1008.10 1007.97 1007.93 1007.97 1008.11 1008.32 1008.55 1008.77 1008.92 1008.96 1008.86 1008.60 1008.19 1007.68 1007.10 1006.53 1006.01 1005.58 1005.26 1005.06 1004.93 1004.85 1004.76 1004.65 1004.47 1004.24 1003.96 1003.68 1003.42 1003.22 1003.10 1003.07 1003.12
1009.74 1009.78 1009.80 1009.78 1009.75 1009.70 1009.65 1009.58 1009.50 1009.41 1009.30 1009.17 1009.05 1008.95 1008.88 1008.85 1008.87 1008.91 1008.95 1008.95 1008.88 1008.71 1008.41 1007.99 1007.47 1006.89 1006.30 1005.74 1005.26 1004.90 1004.64 1004.46 1004.36 1004.26 1004.16 1004.02 1003.82 1003.58 1003.32 1003.06 1002.85 1002.70 1002.62 1002.63
1010.15 1010.11 1010.06 1010.02 1010.00 1010.04 1010.10 1010.20 1010.30 1010.37 1010.39 1010.34 1010.23 1010.06 1009.86 1009.65 1009.44 1009.26 1009.09 1008.92 1008.72 1008.46 1008.13 1007.70 1007.19 1006.62 1006.03 1005.45 1004.93 1004.51 1004.18 1003.96 1003.82 1003.72 1003.63 1003.52 1003.37 1003.18 1002.96 1002.72 1002.50 1002.32 1002.20 1002.14
1010.61 1010.51 1010.41 1010.34 1010.35 1010.44 1010.61 1010.84 1011.09 1011.31 1011.44 1011.46 1011.36 1011.12 1010.79 1010.39 1009.96 1009.56 1009.17 1008.82 1008.50 1008.16 1007.79 1007.36 1006.87 1006.32 1005.72 1005.12 1004.56 1004.07 1003.67 1003.38 1003.19 1003.06 1002.99 1002.92 1002.83 1002.70 1002.54 1002.34 1002.13 1001.93 1001.77 1001.67
1011.14 1011.00 1010.85 1010.75 1010.75 1010.86 1011.09 1011.41 1011.76 1012.09 1012.31 1012.38 1012.28 1011.99 1011.54 1010.98 1010.38 1009.77 1009.20 1008.70 1008.26 1007.85 1007.45 1007.02 1006.54 1005.99 1005.38 1004.75 1004.12 1003.54 1003.05 1002.67 1002.42 1002.26 1002.19 1002.16 1002.14 1002.09 1002.00 1001.87 1001.70 1001.51 1001.33 1001.20
1011.69 1011.52 1011.33 1011.18 1011.14 1011.24 1011.47 1011.82 1012.22 1012.60 1012.88 1012.98 1012.88 1012.56 1012.04 1011.38 1010.64 1009.90 1009.20 1008.58 1008.06 1007.60 1007.17 1006.73 1006.24 1005.67 1005.02 1004.32 1003.59 1002.90 1002.29 1001.80 1001.46 1001.25 1001.18 1001.18 1001.24 1001.28 1001.30 1001.26 1001.16 1001.02 1000.86 1000.74
1012.19 1012.00 1011.76 1011.56 1011.46 1011.50 1011.69 1012.02 1012.42 1012.81 1013.11 1013.24 1013.15 1012.82 1012.29 1011.58 1010.78 1009.96 1009.20 1008.52 1007.94 1007.45 1007.00 1006.53 1006.00 1005.38 1004.66 1003.85 1002.99 1002.15 1001.39 1000.76 1000.31 1000.04 999.95 999.99 1000.11 1000.27 1000.40 1000.48 1000.49 1000.44 1000.34 1000.26
1012.57 1012.37 1012.10 1011.84 1011.67 1011.63 1011.75 1012.02 1012.37 1012.74 1013.04 1013.18 1013.12 1012.82 1012.30 1011.62 1010.82 1010.01 1009.24 1008.55 1007.96 1007.44 1006.96 1006.45 1005.86 1005.15 1004.31 1003.36 1002.34 1001.32 1000.39 999.60 999.03 998.68 998.55 998.62 998.81 999.07 999.34 999.56 999.70 999.77 999.78 999.79
1012.80 1012.60 1012.32 1012.02 1011.78 1011.66 1011.70 1011.88 1012.18 1012.50 1012.78 1012.93 1012.89 1012.64 1012.19 1011.56 1010.83 1010.08 1009.34 1008.68 1008.10 1007.57 1007.05 1006.48 1005.80 1004.98 1004.00 1002.88 1001.68 1000.48 999.35 998.40 997.69 997.25 997.08 997.15 997.41 997.78 998.17 998.54 998.84 999.05 999.20 999.32
1012.88 1012.70 1012.42 1012.10 1011.83 1011.66 1011.63 1011.74 1011.96 1012.23 1012.48 1012.62 1012.61 1012.41 1012.03 1011.50 1010.86 1010.19 1009.52 1008.91 1008.35 1007.81 1007.25 1006.61 1005.84 1004.89 1003.76 1002.47 1001.09 999.69 998.40 997.28 996.44 995.90 995.68 995.75 996.05 996.50 997.01 997.52 997.97 998.34 998.64 998.89
1012.84 1012.70 1012.46 1012.16 1011.89 1011.70 1011.63 1011.69 1011.85 1012.06 1012.26 1012.39 1012.39 1012.24 1011.93 1011.48 1010.94 1010.36 1009.77 1009.21 1008.67 1008.12 1007.52 1006.81 1005.94 1004.87 1003.60 1002.17 1000.63 999.08 997.63 996.38 995.42 994.80 994.52 994.57 994.89 995.40 996.00 996.64 997.22 997.74 998.17 998.56
1012.73 1012.66 1012.48 1012.25 1012.03 1011.86 1011.78 1011.81 1011.92 1012.08 1012.23 1012.32 1012.32 1012.18 1011.92 1011.54 1011.08 1010.57 1010.05 1009.54 1009.02 1008.46 1007.83 1007.06 1006.11 1004.95 1003.58 1002.04 1000.40 998.74 997.20 995.85 994.81 994.11 993.78 993.80 994.11 994.64 995.31 996.02 996.71 997.34 997.89 998.40
1012.60 1012.60 1012.52 1012.40 1012.26 1012.15 1012.10 1012.12 1012.20 1012.31 1012.41 1012.45 1012.42 1012.27 1012.02 1011.67 1011.26 1010.81 1010.34 1009.86 1009.35 1008.80 1008.14 1007.34 1006.34 1005.14 1003.74 1002.16 1000.48 998.80 997.21 995.83 994.74 993.99 993.61 993.59 993.88 994.40 995.07 995.81 996.56 997.26 997.90 998.49
1012.48 1012.56 1012.59 1012.57 1012.54 1012.52 1012.52 1012.57 1012.63 1012.70 1012.74 1012.72 1012.64 1012.46 1012.19 1011.85 1011.46 1011.03 1010.59 1010.14 1009.65 1009.10 1008.45 1007.65 1006.67 1005.48 1004.10 1002.56 1000.93 999.29 997.74 996.38 995.29 994.53 994.11 994.04 994.27 994.75 995.38 996.11 996.86 997.58 998.27 998.91
1012.34 1012.50 1012.63 1012.73 1012.81 1012.88 1012.96 1013.03 1013.09 1013.12 1013.11 1013.04 1012.89 1012.67 1012.38 1012.02 1011.64 1011.23 1010.81 1010.38 1009.92 1009.40 1008.79 1008.03 1007.11 1006.00 1004.71 1003.28 1001.76 1000.23 998.78 997.49 996.45 995.70 995.27 995.15 995.31 995.71 996.27 996.94 997.64 998.35 999.03 999.69
1012.18 1012.39 1012.60 1012.79 1012.97 1013.13 1013.27 1013.38 1013.44 1013.46 1013.41 1013.29 1013.10 1012.84 1012.52 1012.16 1011.78 1011.39 1011.00 1010.61 1010.20 1009.73 1009.18 1008.50 1007.68 1006.69 1005.55 1004.28 1002.92 1001.56 1000.26 999.10 998.14 997.42 996.99 996.82 996.91 997.22 997.68 998.25 998.88 999.53 1000.18 1000.82
1011.96 1012.19 1012.44 1012.70 1012.96 1013.18 1013.38 1013.53 1013.61 1013.62 1013.55 1013.40 1013.19 1012.91 1012.59 1012.24 1011.88 1011.54 1011.19 1010.86 1010.50 1010.11 1009.65 1009.08 1008.38 1007.55 1006.58 1005.50 1004.34 1003.17 1002.05 1001.04 1000.18 999.53 999.11 998.91 998.93 999.14 999.49 999.95 1000.48 1001.04 1001.63 1002.22
1011.66 1011.88 1012.15 1012.44 1012.74 1013.02 1013.26 1013.44 1013.54 1013.56 1013.50 1013.36 1013.15 1012.89 1012.60 1012.29 1011.99 1011.70 1011.42 1011.16 1010.88 1010.58 1010.22 1009.76 1009.20 1008.52 1007.72 1006.84 1005.89 1004.92 1003.98 1003.12 1002.39 1001.81 1001.42 1001.20 1001.16 1001.28 1001.53 1001.88 1002.30 1002.77 1003.28 1003.81
1011.30 1011.50 1011.75 1012.05 1012.36 1012.67 1012.93 1013.14 1013.28 1013.33 1013.30 1013.19 1013.02 1012.81 1012.58 1012.34 1012.12 1011.91 1011.72 1011.54 1011.35 1011.14 1010.86 1010.52 1010.08 1009.54 1008.90 1008.18 1007.41 1006.62 1005.86 1005.15 1004.53 1004.04 1003.68 1003.47 1003.39 1003.44 1003.60 1003.86 1004.18 1004.56 1004.98 1005.45
1010.91 1011.06 1011.30 1011.58 1011.89 1012.21 1012.50 1012.74 1012.90 1013.00 1013.02 1012.97 1012.88 1012.74 1012.60 1012.45 1012.32 1012.20 1012.10 1012.01 1011.90 1011.76 1011.56 1011.30 1010.95 1010.51 1009.99 1009.41 1008.78 1008.14 1007.52 1006.94 1006.44 1006.03 1005.72 1005.53 1005.44 1005.45 1005.54 1005.72 1005.97 1006.27 1006.62 1007.00
1010.51 1010.63 1010.84 1011.11 1011.42 1011.75 1012.06 1012.33 1012.54 1012.69 1012.77 1012.80 1012.78 1012.74 1012.69 1012.64 1012.60 1012.58 1012.56 1012.54 1012.49 1012.40 1012.26 1012.04 1011.74 1011.37 1010.93 1010.44 1009.91 1009.38 1008.86 1008.39 1007.98 1007.65 1007.40 1007.24 1007.16 1007.16 1007.22 1007.36 1007.54 1007.78 1008.06 1008.38
Thickness
5819 5806 5800 5807 5814 5810 5807 5801 5799 5808 5823 5810 5799 5795 5798 5798 5787 5780 5774 5769 5765 5761 5760 5759 5756 5752 5746 5740 5735 5731 5727 5724 5721 5717 5713 5709 5708 5708 5706 5705 5704 5702 5701 5700
5810 5803 5816 5823 5821 5814 5808 5798 5799 5810 5817 5804 5794 5791 5797 5795 5784 5778 5772 5765 5759 5754 5751 5749 5747 5744 5739 5734 5730 5726 5721 5718 5715 5711 5707 5705 5702 5702 5702 5700 5700 5698 5696 5695
5802 5814 5824 5817 5810 5803 5802 5799 5797 5796 5803 5804 5792 5780 5784 5785 5783 5775 5771 5765 5758 5751 5745 5742 5739 5736 5733 5729 5725 5721 5716 5712 5709 5706 5703 5700 5697 5696 5695 5694 5694 5693 5693 5691
5810 5822 5817 5808 5802 5800 5790 5807 5802 5797 5786 5781 5784 5760 5769 5772 5767 5763 5759 5755 5752 5748 5743 5737 5733 5728 5726 5724 5721 5716 5712 5707 5704 5701 5696 5692 5688 5686 5687 5688 5688 5688 5687 5686
5803 5812 5806 5798 5800 5802 5797 5808 5803 5798 5788 5777 5779 5764 5759 5763 5750 5749 5751 5748 5746 5744 5739 5733 5729 5724 5720 5717 5714 5709 5706 5702 5698 5694 5691 5687 5684 5682 5683 5683 5682 5681 5682 5681
5809 5819 5812 5805 5808 5808 5805 5799 5798 5798 5785 5758 5763 5754 5743 5749 5747 5745 5746 5744 5741 5738 5734 5728 5724 5719 5714 5711 5708 5703 5699 5695 5692 5688 5686 5682 5679 5677 5676 5676 5676 5676 5676 5676
5796 5805 5811 5810 5794 5798 5794 5774 5757 5750 5749 5748 5765 5752 5738 5749 5754 5749 5744 5739 5737 5734 5728 5722 5716 5711 5707 5703 5700 5696 5692 5688 5685 5682 5680 5678 5675 5674 5672 5671 5671 5670 5670 5671
5777 5780 5798 5801 5788 5778 5780 5771 5744 5725 5729 5741 5754 5739 5736 5753 5754 5750 5744 5738 5732 5726 5721 5716 5711 5706 5702 5698 5693 5689 5685 5682 5679 5676 5674 5673 5671 5669 5668 5667 5666 5666 5665 5666
5767 5771 5798 5801 5800 5788 5770 5767 5771 5752 5748 5738 5739 5736 5733 5746 5743 5739 5735 5729 5722 5718 5714 5710 5706 5701 5698 5693 5688 5684 5680 5676 5674 5672 5670 5668 5666 5665 5664 5663 5663 5663 5662 5663
5774 5760 5783 5795 5795 5792 5783 5773 5760 5743 5724 5717 5728 5728 5719 5724 5725 5726 5722 5719 5715 5711 5706 5703 5699 5697 5693 5689 5685 5680 5675 5671 5669 5668 5666 5664 5662 5661 5659 5659 5658 5658 5658 5659
5776 5755 5765 5778 5771 5766 5769 5762 5754 5745 5738 5716 5705 5713 5731 5724 5723 5717 5716 5715 5710 5705 5701 5696 5694 5692 5688 5683 5679 5674 5671 5667 5665 5663 5661 5659 5658 5657 5656 5655 5655 5656 5655 5655
5769 5754 5747 5762 5778 5781 5769 5758 5748 5726 5720 5722 5709 5708 5735 5727 5722 5717 5712 5709 5706 5701 5697 5693 5689 5685 5680 5676 5673 5669 5666 5663 5661 5659 5657 5655 5654 5653 5652 5652 5652 5653 5652 5652
5756 5742 5730 5742 5751 5761 5755 5755 5750 5739 5725 5714 5703 5707 5732 5724 5716 5713 5707 5702 5699 5695 5692 5688 5683 5678 5674 5671 5668 5664 5661 5659 5657 5655 5653 5651 5650 5650 5649 5649 5650 5650 5650 5649
5753 5738 5728 5720 5730 5744 5742 5746 5747 5735 5717 5710 5708 5708 5715 5710 5706 5704 5701 5696 5693 5689 5685 5681 5676 5672 5669 5666 5663 5660 5657 5655 5654 5651 5649 5647 5647 5647 5646 5647 5646 5646 5646 5646
5748 5732 5735 5739 5746 5745 5739 5738 5739 5730 5723 5710 5707 5705 5703 5702 5700 5697 5695 5691 5686 5683 5679 5674 5670 5666 5663 5660 5658 5655 5653 5652 5650 5647 5645 5644 5644 5644 5643 5643 5643 5642 5643 5643
5743 5727 5728 5729 5740 5741 5734 5736 5733 5728 5723 5715 5709 5702 5707 5704 5698 5692 5688 5684 5679 5675 5673 5669 5665 5661 5658 5655 5653 5651 5649 5647 5646 5644 5642 5641 5640 5639 5639 5640 5639 5639 5639 5638
5735 5724 5715 5716 5733 5730 5717 5725 5724 5719 5718 5710 5697 5695 5699 5693 5688 5684 5681 5677 5672 5670 5667 5664 5660 5657 5654 5652 5650 5647 5645 5644 5642 5642 5640 5640 5639 5637 5636 5636 5635 5635 5634 5634
5726 5718 5714 5714 5714 5697 5715 5733 5725 5713 5709 5705 5699 5696 5693 5688 5684 5681 5677 5671 5668 5666 5663 5659 5656 5654 5652 5650 5648 5645 5643 5641 5640 5639 5638 5638 5636 5635 5634 5633 5632 5631 5631 5630
5731 5716 5708 5707 5702 5703 5712 5719 5714 5702 5693 5696 5690 5687 5687 5685 5680 5674 5672 5668 5664 5662 5658 5655 5653 5651 5649 5647 5644 5641 5639 5638 5637 5636 5636 5636 5634 5633 5632 5630 5629 5629 5628 5627
5731 5720 5707 5704 5692 5687 5695 5711 5715 5702 5681 5687 5684 5678 5676 5672 5661 5660 5665 5663 5660 5658 5655 5652 5650 5648 5645 5643 5641 5638 5636 5635 5634 5634 5634 5634 5633 5631 5630 5629 5628 5628 5627 5626
5714 5710 5703 5698 5691 5691 5698 5706 5703 5675 5665 5678 5677 5672 5668 5661 5657 5659 5660 5658 5655 5653 5650 5648 5646 5643 5641 5641 5639 5635 5634 5632 5633 5633 5633 5632 5631 5630 5630 5629 5628 5627 5626 5625
5711 5705 5701 5696 5684 5679 5695 5694 5679 5670 5676 5674 5671 5667 5661 5658 5657 5656 5654 5652 5650 5647 5645 5643 5640 5639 5639 5638 5635 5633 5631 5632 5633 5632 5631 5630 5630 5630 5631 5628 5627 5626 5625 5624
5712 5706 5700 5693 5686 5690 5692 5685 5682 5679 5672 5669 5665 5662 5658 5654 5652 5650 5647 5646 5644 5642 5640 5638 5636 5634 5635 5634 5632 5630 5630 5631 5631 5630 5629 5629 5629 5628 5628 5627 5626 5625 5624 5622
5710 5710 5698 5689 5690 5690 5688 5684 5679 5675 5668 5665 5661 5657 5653 5648 5646 5644 5641 5638 5637 5637 5635 5633 5631 5629 5630 5631 5631 5629 5630 5630 5629 5628 5627 5627 5626 5625 5626 5625 5625 5624 5622 5621
5698 5695 5688 5681 5682 5681 5680 5676 5672 5669 5664 5659 5655 5651 5647 5643 5639 5637 5634 5632 5631 5631 5630 5629 5627 5626 5626 5627 5628 5628 5628 5627 5626 5625 5624 5624 5624 5624 5624 5623 5622 5622 5619 5618
5695 5687 5677 5672 5674 5669 5666 5668 5666 5659 5654 5650 5646 5643 5641 5639 5635 5632 5629 5628 5627 5626 5626 5625 5625 5624 5624 5625 5625 5626 5626 5625 5623 5622 5622 5623 5623 5623 5623 5623 5621 5619 5618 5616